[[{"header":{"parameterUnit":"m.s-1","parameterCategory":2,"la1":30.2991,"la2":30.254,"lo1":-89.0895,"lo2":-89.0444,"dy":0.0017,"dx":0.0017,"nx":28,"ny":28,"refTime":"2025-01-17T09:00:00:Z","depth":"0","parameterNumber":2,"parameterNumberName":"U-component_of_CURRENTS"},"data":[0,0,0,0,0,0,0,0,0,0,0,0,0,0,0,0,0,0,0,0,0,0,0,0,0,0,0,0,0,0,0,0,0,0,0,0,0,0,0,0,0,0,0,0,0,0,0,0,0,0,0,0,0,0,0,0,0,0,-0.2408,-0.2409,0,-0.248,-0.248,-0.2481,-0.248,-0.2479,-0.2479,-0.2478,-0.2471,-0.2472,-0.2472,0,0,0,0,0,0,0,0,0,0,0,0,0,-0.2238,-0.2241,-0.2408,-0.2409,-0.241,-0.248,-0.248,-0.2481,-0.248,-0.2479,-0.2478,-0.2478,-0.2471,-0.2472,-0.2472,0,0,0,0,0,0,0,0,0,0,0,0,0,-0.2307,-0.2242,-0.2408,-0.2422,-0.2424,-0.2479,-0.248,-0.2481,-0.248,-0.2479,-0.2478,-0.2478,-0.2471,-0.2472,-0.2472,-0.2491,0,0,-0.2474,-0.2474,0,0,0,0,0,0,0,0,-0.2303,-0.2313,-0.2418,-0.2421,-0.2424,-0.2474,-0.2418,-0.2482,-0.248,-0.2454,-0.2478,-0.2477,-0.2469,-0.2469,-0.2479,-0.2491,-0.2491,-0.2474,-0.2474,-0.2474,-0.2474,0,0,0,0,0,0,0,-0.2298,-0.2309,-0.2432,-0.242,-0.2423,-0.2414,-0.2423,-0.243,-0.246,-0.2456,-0.2457,-0.2473,-0.2469,-0.2479,-0.2479,-0.2491,-0.2474,-0.2474,-0.2474,-0.2475,-0.2489,-0.2489,0,0,0,0,0,0,-0.2302,-0.2306,-0.2429,-0.2434,-0.2365,-0.2418,-0.2428,-0.2455,-0.2462,-0.2464,-0.2474,-0.2473,-0.2478,-0.2478,-0.2479,-0.2468,-0.2474,-0.2475,-0.2475,-0.2489,-0.2489,-0.2489,0,0,0,0,0,0,-0.2298,-0.2313,-0.2427,-0.2374,-0.2388,-0.2423,-0.2453,-0.2457,-0.2463,-0.2477,-0.2476,-0.2476,-0.2478,-0.2478,-0.2488,-0.2469,-0.2475,-0.2475,-0.2489,-0.2489,-0.2489,-0.2468,0,0,0,0,0,0,-0.2293,-0.2311,-0.2322,-0.2375,-0.2392,-0.2449,-0.2454,-0.2459,-0.2477,-0.2476,-0.2478,-0.2477,-0.2477,-0.2487,-0.2488,-0.2469,-0.2476,-0.2489,-0.2489,-0.2489,-0.2469,-0.2467,-0.2466,0,0,0,0,0,-0.2287,-0.2294,-0.2322,-0.2337,-0.2409,-0.2449,-0.2456,-0.2474,-0.2477,-0.2476,-0.2487,-0.2477,-0.2488,-0.2488,-0.2489,-0.247,-0.2489,-0.2489,-0.2489,-0.2469,-0.2468,-0.2466,0,0,0,0,0,0,-0.2228,-0.2298,-0.2328,-0.2359,-0.2402,-0.245,-0.2449,-0.2474,-0.2485,-0.2481,-0.2488,-0.2488,-0.2489,-0.2489,-0.2489,-0.2476,-0.2483,-0.2483,-0.2467,-0.2466,-0.2464,-0.2473,-0.2476,0,0,0,0,0,-0.2226,-0.2237,-0.2318,-0.2334,-0.2361,-0.2409,-0.2425,-0.2449,-0.2474,-0.2477,-0.2487,-0.2491,-0.2493,-0.2487,-0.2495,-0.2491,-0.2473,-0.2478,-0.2477,-0.2476,-0.2485,-0.2428,-0.2422,-0.249,-0.249,-0.249,0,0,-0.2208,-0.2243,-0.2253,-0.232,-0.2352,-0.2397,-0.2414,-0.2441,-0.2469,-0.2475,-0.2493,-0.2494,-0.2496,-0.2493,-0.249,-0.2486,-0.2449,-0.2476,-0.2475,-0.2485,-0.2427,-0.242,-0.2414,-0.249,-0.249,-0.249,0,0,-0.2168,-0.2213,-0.2217,-0.2263,-0.2322,-0.2366,-0.2378,-0.2439,-0.245,-0.248,-0.2487,-0.248,-0.2491,-0.2484,-0.2482,-0.2481,-0.2452,-0.2477,-0.2467,-0.241,-0.2404,-0.2398,-0.2369,-0.236,-0.2465,-0.2465,-0.2465,0,-0.2159,-0.2175,-0.2221,-0.2251,-0.2289,-0.2357,-0.2391,-0.2424,-0.2476,-0.2477,-0.2479,-0.2485,-0.2485,-0.2472,-0.2475,-0.2475,-0.2449,-0.2468,-0.2407,-0.24,-0.2394,-0.2366,-0.2357,-0.2464,-0.2464,-0.2464,-0.2464,0,-0.2143,-0.2161,-0.2164,-0.2234,-0.2279,-0.2311,-0.2393,-0.242,-0.2446,-0.2471,-0.2466,-0.2469,-0.2461,-0.2457,-0.247,-0.2431,-0.2428,-0.2416,-0.2405,-0.2386,-0.2358,-0.2348,-0.2463,-0.2463,-0.2463,-0.2464,0,0,-0.2161,-0.2153,-0.2173,-0.2172,-0.2278,-0.231,-0.2364,-0.2419,-0.2427,-0.2456,-0.2445,-0.2453,-0.2442,-0.2442,-0.2439,-0.2402,-0.2343,-0.2394,-0.2392,-0.2358,-0.2231,-0.2195,-0.2182,-0.2308,-0.2306,-0.2305,-0.2228,0,-0.2154,-0.2155,-0.2183,-0.221,-0.2222,-0.2302,-0.2341,-0.2396,-0.2424,-0.243,-0.2426,-0.2416,-0.2439,-0.2418,-0.2388,-0.2364,-0.2318,-0.2366,-0.2263,-0.226,-0.2223,-0.217,-0.2087,-0.2008,-0.2219,-0.2217,-0.2216,0,-0.2184,-0.2157,-0.2164,-0.2159,-0.2183,-0.2216,-0.2283,-0.2323,-0.2361,-0.2372,-0.2368,-0.2374,-0.2355,-0.2356,-0.2294,-0.2321,-0.2277,-0.2252,-0.2247,-0.2217,-0.2207,-0.2062,-0.1984,-0.1962,-0.2202,-0.2203,-0.2204,0,-0.2186,-0.2172,-0.2152,-0.217,-0.2188,-0.2196,-0.2225,-0.2287,-0.2312,-0.2323,-0.2327,-0.2311,-0.2294,-0.2245,-0.2233,-0.2243,-0.2154,-0.2148,-0.2074,-0.2072,-0.1986,-0.1979,-0.1867,-0.207,-0.207,-0.207,-0.2071,0,-0.2202,-0.2174,-0.2125,-0.213,-0.2105,-0.2142,-0.215,-0.2191,-0.2222,-0.2238,-0.2274,-0.2274,-0.2261,-0.2232,-0.2203,-0.2122,-0.212,-0.2065,-0.2038,-0.1978,-0.1972,-0.1939,-0.196,-0.2068,-0.2068,-0.2069,-0.2069,0,-0.2189,-0.2171,-0.214,-0.2121,-0.2105,-0.2099,-0.2114,-0.2114,-0.2157,-0.2177,-0.218,-0.2227,-0.2189,-0.218,-0.2104,-0.2074,-0.1959,-0.1969,-0.1923,-0.1891,-0.1793,-0.1818,-0.1696,-0.1652,-0.1854,-0.1853,-0.1851,0,-0.2132,-0.2118,-0.2138,-0.2128,-0.2102,-0.2073,-0.2063,-0.2089,-0.2093,-0.2151,-0.2149,-0.2142,-0.2122,-0.2028,-0.1971,-0.1886,-0.1884,-0.1763,-0.176,-0.1764,-0.1771,-0.1791,-0.1765,-0.164,-0.1637,-0.1635,-0.1633,0,-0.2009,-0.2069,-0.2074,-0.2072,-0.2051,-0.2037,-0.2007,-0.1999,-0.2036,-0.2049,-0.2054,-0.2038,-0.1982,-0.1866,-0.1784,-0.1732,-0.1715,-0.171,-0.1701,-0.1582,-0.1607,-0.1559,-0.175,-0.1612,-0.1614,-0.1615,-0.1616,-0.1617,-0.1915,-0.1918,-0.1966,-0.1948,-0.1967,-0.195,-0.1878,-0.1899,-0.1879,-0.1856,-0.1914,-0.1847,-0.1774,-0.1643,-0.16,-0.1496,-0.155,-0.1438,-0.1465,-0.1484,-0.144,-0.1606,-0.1449,-0.1451,-0.1452,-0.1452,-0.1453,0,-0.1735,-0.1764,-0.1788,-0.1797,-0.1787,-0.1813,-0.1786,-0.1693,-0.1623,-0.1686,-0.166,-0.1575,-0.1461,-0.1416,-0.1323,-0.1264,-0.1247,-0.1243,-0.1244,-0.1226,-0.1338,-0.1328,-0.1154,-0.1154,-0.1154,-0.1154,-0.1154,-0.1154,-0.164,-0.1608,-0.1631,-0.1547,-0.155,-0.1441,-0.1377,-0.133,-0.1324,-0.1259,-0.1243,-0.1229,-0.122,-0.128,-0.1192,-0.1145,-0.1125,-0.1093,-0.1127,-0.1214,-0.1234,-0.1254,-0.1248,-0.1059,-0.1059,-0.096,-0.0959,-0.0959]},{"header":{"parameterUnit":"m.s-1","parameterCategory":2,"la1":30.2991,"la2":30.254,"lo1":-89.0895,"lo2":-89.0444,"dy":0.0017,"dx":0.0017,"nx":28,"ny":28,"refTime":"2025-01-17T09:00:00:Z","depth":"0","parameterNumber":3,"parameterNumberName":"V-component_of_CURRENTS"},"data":[0,0,0,0,0,0,0,0,0,0,0,0,0,0,0,0,0,0,0,0,0,0,0,0,0,0,0,0,0,0,0,0,0,0,0,0,0,0,0,0,0,0,0,0,0,0,0,0,0,0,0,0,0,0,0,0,0,0,0.006,0.0061,0,0.019,0.0192,0.0193,0.0272,0.0272,0.0273,0.0273,0.044,0.0444,0.0448,0,0,0,0,0,0,0,0,0,0,0,0,0,-0.0034,-0.0033,0.006,0.0062,0.0063,0.019,0.0192,0.0194,0.0272,0.0272,0.0273,0.0273,0.0439,0.0444,0.0449,0,0,0,0,0,0,0,0,0,0,0,0,0,0.0043,-0.0033,0.006,0.0117,0.0124,0.019,0.0192,0.0194,0.0272,0.0272,0.0273,0.0273,0.0437,0.0443,0.0449,0.0478,0,0,0.0468,0.0471,0,0,0,0,0,0,0,0,0.0038,0.0046,0.0107,0.0113,0.0121,0.0215,0.022,0.0291,0.0272,0.0216,0.0273,0.0274,0.0368,0.038,0.0403,0.0485,0.0493,0.0469,0.0473,0.0475,0.0477,0,0,0,0,0,0,0,0.0033,0.0042,0.0112,0.0109,0.0117,0.0166,0.0177,0.0234,0.0288,0.0221,0.0227,0.024,0.0372,0.0397,0.0408,0.0495,0.0469,0.0474,0.0478,0.048,0.0627,0.0627,0,0,0,0,0,0,0.0011,0.0036,0.0108,0.0116,0.0079,0.0167,0.0179,0.0185,0.0287,0.0303,0.024,0.0244,0.0386,0.04,0.0414,0.0465,0.0475,0.0481,0.0485,0.0627,0.0627,0.0627,0,0,0,0,0,0,0.0008,0.0016,0.0103,0.0079,0.0094,0.0168,0.0174,0.0187,0.021,0.0301,0.0318,0.0249,0.0387,0.0405,0.0467,0.0472,0.0484,0.0489,0.0626,0.0627,0.0627,0.0561,0,0,0,0,0,0,0.0005,0.0014,0.0009,0.0077,0.0094,0.0128,0.0173,0.0189,0.0218,0.0224,0.0315,0.0331,0.0389,0.0457,0.0473,0.0481,0.0494,0.0626,0.0627,0.0627,0.0563,0.0559,0.0556,0,0,0,0,0,0.0001,-0.0024,0.0007,0.0016,0.0085,0.0128,0.014,0.0196,0.0217,0.022,0.029,0.0328,0.047,0.0462,0.0481,0.0491,0.0626,0.0627,0.0627,0.0565,0.056,0.0556,0,0,0,0,0,0,-0.0054,-0.0016,0.0019,0.0013,0.0066,0.014,0.0142,0.0186,0.0243,0.0248,0.0334,0.0356,0.0413,0.0457,0.0446,0.0533,0.0553,0.0557,0.0499,0.0495,0.0492,0.0483,0.0499,0,0,0,0,0,-0.0071,-0.0089,-0.0019,-0.0022,-0.0005,0.007,0.0094,0.0135,0.0195,0.022,0.0288,0.036,0.0429,0.0464,0.0527,0.0573,0.0597,0.059,0.0586,0.0583,0.0588,0.065,0.0652,0.0628,0.0628,0.0628,0,0,-0.0084,-0.0073,-0.0073,-0.0036,0.0005,0.0036,0.0084,0.0108,0.0149,0.0229,0.0289,0.0349,0.0438,0.0496,0.0524,0.0533,0.0589,0.0583,0.058,0.0587,0.065,0.0652,0.0655,0.0629,0.0628,0.0628,0,0,-0.0138,-0.0118,-0.0148,-0.0113,-0.0067,-0.0009,-0.0006,0.0068,0.0109,0.0173,0.0246,0.0305,0.0405,0.0472,0.052,0.0531,0.0568,0.0548,0.0526,0.0584,0.0587,0.059,0.0563,0.0564,0.0545,0.0545,0.0545,0,-0.0123,-0.0176,-0.0144,-0.0153,-0.0122,-0.0033,-0.0023,0.0037,0.0127,0.0167,0.018,0.0339,0.0398,0.0493,0.0495,0.0523,0.0538,0.0534,0.0579,0.0583,0.0586,0.0559,0.0561,0.0542,0.0542,0.0543,0.0543,0,-0.0191,-0.0222,-0.0239,-0.0212,-0.0171,-0.0158,-0.0062,-0.0013,0.0049,0.012,0.0211,0.0297,0.039,0.0416,0.0462,0.0526,0.0515,0.0565,0.0586,0.0585,0.0555,0.0558,0.0538,0.0539,0.054,0.054,0,0,-0.0084,-0.0258,-0.0233,-0.0279,-0.0203,-0.0176,-0.0105,-0.0013,0.0026,0.0125,0.0178,0.03,0.0343,0.0399,0.0462,0.0514,0.0523,0.0543,0.0548,0.0506,0.0593,0.0608,0.0612,0.0589,0.0591,0.0592,0.0538,0,-0.0099,-0.0235,-0.0254,-0.0278,-0.0322,-0.0227,-0.017,-0.0072,0.0013,0.0083,0.02,0.0266,0.0341,0.0362,0.0436,0.0511,0.0539,0.0529,0.061,0.0611,0.062,0.0622,0.0651,0.061,0.0542,0.0542,0.0543,0,-0.0039,-0.0193,-0.03,-0.0387,-0.0376,-0.0351,-0.0245,-0.0189,-0.0053,0.0004,0.0113,0.0197,0.0298,0.0344,0.0484,0.0476,0.0524,0.0576,0.0576,0.0625,0.0636,0.0616,0.0619,0.0719,0.0548,0.0548,0.0547,0,0.004,-0.0126,-0.0256,-0.0276,-0.0376,-0.0364,-0.0338,-0.0213,-0.0169,-0.0055,-0.0024,0.0129,0.0177,0.0305,0.0431,0.0451,0.0559,0.0597,0.0648,0.0645,0.0706,0.0708,0.0819,0.0681,0.0681,0.0682,0.0682,0,0.0113,0.0048,-0.027,-0.0328,-0.0425,-0.0426,-0.0415,-0.035,-0.0275,-0.0225,-0.0084,-0.0018,0.0176,0.028,0.0396,0.0528,0.0533,0.064,0.0655,0.0676,0.0676,0.0797,0.0832,0.0679,0.068,0.068,0.0681,0,0.0295,0.0086,-0.0091,-0.0337,-0.0404,-0.0441,-0.0493,-0.048,-0.0408,-0.0344,-0.0317,-0.0144,0.0005,0.0177,0.0351,0.0459,0.0645,0.0627,0.0595,0.0611,0.0767,0.0796,0.0896,0.0948,0.0665,0.0665,0.0665,0,0.0336,0.0233,-0.0104,-0.0225,-0.0343,-0.0455,-0.051,-0.0519,-0.0512,-0.04,-0.0374,-0.023,-0.0073,0.0166,0.0375,0.0554,0.0654,0.0654,0.0727,0.0781,0.0825,0.0842,0.088,0.0737,0.0738,0.0739,0.0739,0,0.0385,0.0283,0.0115,-0.016,-0.031,-0.0462,-0.056,-0.0597,-0.0575,-0.0521,-0.0402,-0.0277,-0.0032,0.0226,0.044,0.0561,0.073,0.0674,0.0776,0.0931,0.0915,0.097,0.0698,0.0746,0.0745,0.0745,0.0744,0.0744,0.0428,0.035,0.0114,-0.0077,-0.0247,-0.0413,-0.046,-0.055,-0.055,-0.0413,-0.0388,-0.0128,0.012,0.0466,0.0578,0.0816,0.0798,0.091,0.0939,0.0948,0.1031,0.0733,0.079,0.079,0.079,0.0789,0.0789,0,0.0386,0.0332,0.019,-0.004,-0.0145,-0.028,-0.0436,-0.0443,-0.0416,-0.0307,-0.0158,0.0177,0.0442,0.0686,0.0963,0.1085,0.1115,0.1144,0.1197,0.1225,0.1006,0.1048,0.1112,0.1112,0.1112,0.1112,0.1112,0.1112,0.0357,0.0244,0.0212,0.0073,-0.003,-0.013,-0.0203,-0.0233,-0.0168,0.0054,0.0305,0.0499,0.0746,0.1072,0.1319,0.134,0.1448,0.1425,0.1477,0.1352,0.1333,0.1315,0.1367,0.1497,0.1498,0.1703,0.1705,0.1706]}],[{"header":{"parameterUnit":"m.s-1","parameterCategory":2,"la1":30.2991,"la2":30.254,"lo1":-89.0895,"lo2":-89.0444,"dy":0.0017,"dx":0.0017,"nx":28,"ny":28,"refTime":"2025-01-17T09:00:00:Z","depth":"2","parameterNumber":2,"parameterNumberName":"U-component_of_CURRENTS"},"data":[0,0,0,0,0,0,0,0,0,0,0,0,0,0,0,0,0,0,0,0,0,0,0,0,0,0,0,0,0,0,0,0,0,0,0,0,0,0,0,0,0,0,0,0,0,0,0,0,0,0,0,0,0,0,0,0,0,0,-0.1914,-0.1916,0,-0.2012,-0.2013,-0.2013,-0.2017,-0.2017,-0.2016,-0.2016,-0.2089,-0.2092,-0.2094,0,0,0,0,0,0,0,0,0,0,0,0,0,-0.1779,-0.1781,-0.1914,-0.1916,-0.1918,-0.2012,-0.2013,-0.2013,-0.2017,-0.2017,-0.2016,-0.2016,-0.2089,-0.2092,-0.2094,0,0,0,0,0,0,0,0,0,0,0,0,0,-0.1846,-0.1781,-0.1914,-0.1937,-0.1941,-0.2012,-0.2013,-0.2013,-0.2017,-0.2017,-0.2016,-0.2015,-0.2088,-0.2091,-0.2095,-0.213,0,0,-0.2106,-0.2107,0,0,0,0,0,0,0,0,-0.1842,-0.185,-0.1932,-0.1936,-0.194,-0.2009,-0.1993,-0.2054,-0.2018,-0.198,-0.2016,-0.2015,-0.2066,-0.2071,-0.208,-0.2133,-0.2137,-0.2106,-0.2108,-0.211,-0.2111,0,0,0,0,0,0,0,-0.1837,-0.1846,-0.1945,-0.1934,-0.1939,-0.196,-0.1967,-0.2004,-0.2019,-0.1983,-0.1986,-0.2009,-0.2067,-0.2077,-0.2082,-0.2138,-0.2106,-0.2109,-0.2111,-0.2113,-0.2165,-0.2164,0,0,0,0,0,0,-0.184,-0.1841,-0.1942,-0.1949,-0.1897,-0.1963,-0.1971,-0.1981,-0.2019,-0.2027,-0.201,-0.2009,-0.2071,-0.2078,-0.2085,-0.2108,-0.211,-0.2113,-0.2115,-0.2166,-0.2165,-0.2164,0,0,0,0,0,0,-0.1836,-0.1847,-0.1938,-0.1904,-0.1918,-0.1967,-0.1977,-0.1983,-0.2001,-0.2041,-0.2046,-0.2024,-0.2071,-0.208,-0.2099,-0.2112,-0.2115,-0.2118,-0.2167,-0.2166,-0.2165,-0.2168,0,0,0,0,0,0,-0.1831,-0.1844,-0.1852,-0.1904,-0.1921,-0.1971,-0.1979,-0.1986,-0.202,-0.202,-0.2055,-0.206,-0.2071,-0.2093,-0.2102,-0.2116,-0.2121,-0.2168,-0.2166,-0.2165,-0.2169,-0.2167,-0.2166,0,0,0,0,0,-0.1826,-0.1841,-0.1851,-0.1864,-0.1928,-0.1972,-0.198,-0.2008,-0.2022,-0.2023,-0.2037,-0.206,-0.209,-0.2096,-0.2107,-0.2122,-0.2168,-0.2167,-0.2165,-0.217,-0.2167,-0.2166,0,0,0,0,0,0,-0.1805,-0.1846,-0.1857,-0.1889,-0.1923,-0.1975,-0.1993,-0.2017,-0.2032,-0.2036,-0.206,-0.2066,-0.2086,-0.2098,-0.2103,-0.2127,-0.213,-0.2131,-0.213,-0.2128,-0.2127,-0.2138,-0.2124,0,0,0,0,0,-0.1801,-0.1807,-0.1861,-0.1884,-0.1903,-0.1949,-0.1974,-0.1996,-0.2025,-0.2032,-0.2058,-0.2076,-0.2088,-0.2102,-0.2116,-0.2142,-0.2129,-0.2153,-0.2151,-0.215,-0.2163,-0.2125,-0.2121,-0.2159,-0.2159,-0.2159,0,0,-0.1805,-0.1827,-0.1835,-0.1878,-0.1908,-0.1939,-0.1959,-0.2,-0.2024,-0.204,-0.2071,-0.208,-0.2092,-0.2106,-0.2117,-0.2121,-0.213,-0.2148,-0.2147,-0.2161,-0.2123,-0.2119,-0.2116,-0.2158,-0.2158,-0.2158,0,0,-0.181,-0.1829,-0.1835,-0.1862,-0.1911,-0.1939,-0.1953,-0.2007,-0.2023,-0.2054,-0.2063,-0.2073,-0.2107,-0.2112,-0.2119,-0.212,-0.2121,-0.2125,-0.2137,-0.2099,-0.2096,-0.2093,-0.2065,-0.2059,-0.2126,-0.2126,-0.2126,0,-0.1821,-0.1827,-0.1847,-0.1867,-0.1895,-0.1939,-0.1965,-0.1993,-0.2045,-0.2054,-0.2058,-0.2087,-0.2107,-0.2118,-0.2119,-0.2121,-0.2099,-0.2147,-0.2098,-0.2095,-0.2092,-0.2064,-0.2058,-0.2126,-0.2126,-0.2126,-0.2126,0,-0.1826,-0.184,-0.1851,-0.1878,-0.1908,-0.1938,-0.1986,-0.201,-0.2036,-0.2059,-0.2075,-0.2089,-0.2101,-0.211,-0.2125,-0.212,-0.2109,-0.2099,-0.2107,-0.2089,-0.2059,-0.2053,-0.2126,-0.2126,-0.2126,-0.2126,0,0,-0.1839,-0.1851,-0.1857,-0.1861,-0.1916,-0.194,-0.1978,-0.2014,-0.2031,-0.2062,-0.2071,-0.2099,-0.2105,-0.2113,-0.2125,-0.2112,-0.2081,-0.2107,-0.2105,-0.2086,-0.1999,-0.1961,-0.195,-0.2056,-0.2055,-0.2055,-0.1984,0,-0.1842,-0.1855,-0.1871,-0.1896,-0.1908,-0.1951,-0.1979,-0.2016,-0.204,-0.2057,-0.2069,-0.2081,-0.2105,-0.2109,-0.21,-0.2091,-0.2066,-0.2101,-0.2013,-0.2011,-0.1985,-0.1942,-0.1813,-0.1736,-0.1978,-0.1977,-0.1976,0,-0.1834,-0.1846,-0.186,-0.1882,-0.1895,-0.1919,-0.1958,-0.199,-0.2021,-0.2038,-0.205,-0.2062,-0.2073,-0.2078,-0.2047,-0.2067,-0.2037,-0.2022,-0.2017,-0.1982,-0.1962,-0.1793,-0.1716,-0.1965,-0.1966,-0.1967,-0.1968,0,-0.1794,-0.1832,-0.1833,-0.1847,-0.1891,-0.1903,-0.1932,-0.1975,-0.1999,-0.202,-0.2032,-0.2035,-0.2039,-0.2006,-0.2006,-0.2014,-0.1955,-0.1948,-0.188,-0.1877,-0.1751,-0.1739,-0.1896,-0.1897,-0.1897,-0.1897,-0.1897,0,-0.1765,-0.1766,-0.1812,-0.181,-0.1832,-0.1872,-0.1892,-0.1924,-0.1962,-0.1981,-0.2014,-0.2023,-0.2021,-0.2003,-0.1983,-0.192,-0.1925,-0.1876,-0.185,-0.1748,-0.1736,-0.1929,-0.1934,-0.1894,-0.1895,-0.1895,-0.1896,0,-0.1697,-0.1721,-0.1735,-0.1787,-0.1801,-0.1819,-0.1873,-0.1885,-0.1932,-0.1955,-0.1962,-0.2003,-0.1977,-0.1967,-0.1915,-0.1884,-0.1829,-0.1799,-0.1692,-0.1655,-0.1779,-0.1785,-0.1698,-0.1695,-0.1694,-0.1692,-0.1691,0,-0.1642,-0.1643,-0.1714,-0.1718,-0.1736,-0.177,-0.1786,-0.1857,-0.1876,-0.1941,-0.1941,-0.1945,-0.1923,-0.1848,-0.1792,-0.1714,-0.1771,-0.1553,-0.1544,-0.1772,-0.1756,-0.1764,-0.1772,-0.1372,-0.1368,-0.1365,-0.1363,0,-0.155,-0.1594,-0.1616,-0.1641,-0.166,-0.1694,-0.1725,-0.1746,-0.1823,-0.1847,-0.186,-0.1845,-0.1798,-0.1662,-0.1588,-0.1534,-0.1558,-0.1488,-0.1719,-0.1458,-0.1463,-0.1449,-0.1467,-0.1336,-0.1338,-0.134,-0.1342,-0.1343,-0.148,-0.1491,-0.1521,-0.1541,-0.1572,-0.1584,-0.1564,-0.1617,-0.1639,-0.164,-0.1712,-0.1628,-0.1611,-0.1413,-0.1343,-0.1286,-0.1392,-0.1315,-0.1325,-0.1338,-0.1328,-0.1331,-0.1177,-0.1179,-0.1181,-0.1182,-0.1183,0,-0.1365,-0.1381,-0.1397,-0.1414,-0.1405,-0.1465,-0.1484,-0.1439,-0.142,-0.1454,-0.1436,-0.1268,-0.118,-0.1159,-0.1031,-0.1015,-0.101,-0.0967,-0.0954,-0.0981,-0.1006,-0.098,-0.0736,-0.0735,-0.0734,-0.0732,0,0,-0.1293,-0.1263,-0.1284,-0.1225,-0.1242,-0.1179,-0.1166,-0.1137,-0.1115,-0.106,-0.1016,-0.1089,-0.1102,-0.0904,-0.0876,-0.0775,-0.0865,-0.0738,-0.1096,-0.1106,-0.1128,-0.1208,-0.12,0,0,0,0,0]},{"header":{"parameterUnit":"m.s-1","parameterCategory":2,"la1":30.2991,"la2":30.254,"lo1":-89.0895,"lo2":-89.0444,"dy":0.0017,"dx":0.0017,"nx":28,"ny":28,"refTime":"2025-01-17T09:00:00:Z","depth":"2","parameterNumber":3,"parameterNumberName":"V-component_of_CURRENTS"},"data":[0,0,0,0,0,0,0,0,0,0,0,0,0,0,0,0,0,0,0,0,0,0,0,0,0,0,0,0,0,0,0,0,0,0,0,0,0,0,0,0,0,0,0,0,0,0,0,0,0,0,0,0,0,0,0,0,0,0,-0.033,-0.0329,0,-0.0245,-0.0244,-0.0244,-0.0193,-0.0193,-0.0192,-0.0192,-0.0043,-0.004,-0.0036,0,0,0,0,0,0,0,0,0,0,0,0,0,-0.0362,-0.0363,-0.0331,-0.0329,-0.0328,-0.0245,-0.0244,-0.0243,-0.0193,-0.0193,-0.0192,-0.0191,-0.0044,-0.004,-0.0036,0,0,0,0,0,0,0,0,0,0,0,0,0,-0.0322,-0.0363,-0.0331,-0.0291,-0.0287,-0.0245,-0.0244,-0.0243,-0.0193,-0.0192,-0.0192,-0.0191,-0.0046,-0.0041,-0.0035,-0.0016,0,0,-0.0019,-0.0017,0,0,0,0,0,0,0,0,-0.0325,-0.0322,-0.0298,-0.0294,-0.0289,-0.0227,-0.0201,-0.0163,-0.0193,-0.0231,-0.0192,-0.0191,-0.0098,-0.0088,-0.0078,-0.0009,-0.0002,-0.0019,-0.0015,-0.0013,-0.0012,0,0,0,0,0,0,0,-0.0328,-0.0324,-0.0299,-0.0297,-0.0291,-0.0247,-0.0242,-0.0193,-0.017,-0.0228,-0.0223,-0.021,-0.0095,-0.0083,-0.0074,-0.0,-0.0019,-0.0014,-0.0011,-0.0009,0.0089,0.0089,0,0,0,0,0,0,-0.0339,-0.0328,-0.0302,-0.0296,-0.0303,-0.0248,-0.0242,-0.0249,-0.0172,-0.0159,-0.0211,-0.0208,-0.0093,-0.008,-0.0068,-0.0031,-0.0013,-0.0008,-0.0005,0.009,0.0089,0.0088,0,0,0,0,0,0,-0.0341,-0.0339,-0.0305,-0.0307,-0.0299,-0.0248,-0.0257,-0.0248,-0.023,-0.0159,-0.0146,-0.0201,-0.0092,-0.0076,-0.004,-0.0025,-0.0006,-0.0001,0.009,0.0089,0.0089,0.0039,0,0,0,0,0,0,-0.0342,-0.034,-0.0348,-0.0308,-0.0299,-0.0287,-0.0257,-0.0247,-0.0222,-0.0217,-0.0146,-0.0132,-0.009,-0.0048,-0.0034,-0.0017,0.0003,0.0091,0.009,0.0089,0.0042,0.0037,0.0033,0,0,0,0,0,-0.0344,-0.0355,-0.035,-0.0346,-0.0314,-0.0287,-0.0279,-0.0241,-0.0222,-0.0221,-0.0182,-0.0134,-0.0045,-0.0045,-0.0028,-0.0009,0.0092,0.009,0.0089,0.0044,0.0038,0.0033,0,0,0,0,0,0,-0.0359,-0.0349,-0.0343,-0.0348,-0.0323,-0.0278,-0.0267,-0.0243,-0.0211,-0.0203,-0.0142,-0.0126,-0.0089,-0.005,-0.0052,0.0012,0.0032,0.0034,-0.0008,-0.0013,-0.0017,-0.0004,0.0008,0,0,0,0,0,-0.0372,-0.0387,-0.0359,-0.0362,-0.0353,-0.0313,-0.0295,-0.0271,-0.0236,-0.0221,-0.0171,-0.0122,-0.0083,-0.0051,-0.0013,0.0026,0.006,0.0047,0.0043,0.0039,0.0058,0.0103,0.0105,0.0084,0.0084,0.0084,0,0,-0.0374,-0.0372,-0.0377,-0.0367,-0.0345,-0.0339,-0.0301,-0.0279,-0.0266,-0.0208,-0.0176,-0.0136,-0.0081,-0.0045,-0.0023,-0.0007,0.0055,0.0037,0.0034,0.0056,0.0102,0.0105,0.0107,0.0083,0.0083,0.0083,0,0,-0.0392,-0.0391,-0.0412,-0.0398,-0.0375,-0.0352,-0.0348,-0.0307,-0.0283,-0.0253,-0.0211,-0.0166,-0.0104,-0.0057,-0.0028,-0.0032,0.0023,-0.0021,-0.0017,0.0025,0.0027,0.003,0.0046,0.0051,-0.0015,-0.0015,-0.0015,0,-0.0391,-0.0421,-0.0408,-0.0418,-0.0404,-0.0363,-0.0365,-0.0339,-0.0289,-0.0263,-0.0251,-0.0152,-0.0106,-0.0047,-0.0049,-0.0036,-0.0016,-0.0001,0.002,0.0024,0.0028,0.0044,0.005,-0.0017,-0.0017,-0.0017,-0.0016,0,-0.0426,-0.0443,-0.0448,-0.0459,-0.0441,-0.0435,-0.0398,-0.0376,-0.034,-0.0302,-0.0241,-0.0181,-0.0116,-0.0098,-0.0069,-0.0015,-0.0014,0.0001,0.0036,0.0028,0.0044,0.0051,-0.0021,-0.002,-0.0019,-0.0019,0,0,-0.0453,-0.047,-0.0477,-0.0485,-0.0462,-0.0451,-0.0429,-0.0392,-0.0369,-0.031,-0.0269,-0.0191,-0.0144,-0.0107,-0.006,-0.001,0.0023,0.0009,0.0013,0.0028,0.0097,0.0118,0.0127,0.004,0.0042,0.0043,0.0086,0,-0.0486,-0.0519,-0.0514,-0.0531,-0.054,-0.0495,-0.0477,-0.0433,-0.0385,-0.0338,-0.0254,-0.0203,-0.0153,-0.0121,-0.0063,0.0003,0.0044,0.0009,0.0102,0.0105,0.0128,0.0138,0.0117,0.0156,0.0094,0.0095,0.0096,0,-0.0557,-0.0552,-0.0577,-0.057,-0.0567,-0.0565,-0.052,-0.0496,-0.0418,-0.0376,-0.0297,-0.0235,-0.0144,-0.0114,0.0015,-0.0012,0.0043,0.0093,0.0096,0.0148,0.0141,0.0161,0.0172,0.0108,0.0107,0.0107,0.0106,0,-0.0624,-0.0623,-0.0641,-0.0636,-0.0602,-0.0596,-0.0574,-0.0508,-0.048,-0.0398,-0.0365,-0.0251,-0.0195,-0.0098,0.0019,0.0014,0.0149,0.0147,0.0216,0.0216,0.0237,0.0237,0.0235,0.0235,0.0235,0.0234,0.0234,0,-0.0707,-0.073,-0.0672,-0.0682,-0.0677,-0.0639,-0.063,-0.0588,-0.0524,-0.0488,-0.0387,-0.0329,-0.0185,-0.0087,0.0008,0.0142,0.014,0.0231,0.0243,0.0214,0.0212,0.0209,0.0206,0.0236,0.0236,0.0235,0.0235,0,-0.0832,-0.0801,-0.0801,-0.0737,-0.0726,-0.0721,-0.0683,-0.067,-0.0598,-0.0549,-0.0524,-0.0387,-0.0248,-0.0109,0.0048,0.0127,0.0246,0.0289,0.0236,0.0242,0.028,0.0273,0.0364,0.0365,0.0367,0.0368,0.0368,0,-0.0911,-0.0922,-0.0846,-0.0843,-0.0827,-0.0807,-0.08,-0.0721,-0.0696,-0.0576,-0.0556,-0.041,-0.0291,-0.0056,0.0113,0.028,0.0282,0.034,0.0342,0.0298,0.03,0.0291,0.0283,0.0329,0.033,0.033,0.033,0,-0.1017,-0.0982,-0.0967,-0.096,-0.0947,-0.0919,-0.0896,-0.0875,-0.0771,-0.0703,-0.0587,-0.0481,-0.0234,-0.0033,0.0184,0.0277,0.0314,0.0353,0.0338,0.0303,0.0271,0.027,0.0263,0.0333,0.0333,0.0333,0.0333,0.0333,-0.1076,-0.1088,-0.1069,-0.107,-0.1068,-0.1042,-0.1039,-0.0977,-0.0912,-0.0791,-0.0641,-0.0465,-0.0248,0.0065,0.0231,0.0373,0.0372,0.0397,0.0394,0.0391,0.0383,0.0355,0.043,0.043,0.0431,0.0431,0.0431,0,-0.1114,-0.1148,-0.1185,-0.1181,-0.1219,-0.117,-0.112,-0.1091,-0.1019,-0.0845,-0.07,-0.0421,-0.0172,0.0042,0.0277,0.0424,0.041,0.0436,0.039,0.0386,0.0383,0.0373,0.0418,0.0419,0.0419,0.0419,0,0,-0.1133,-0.1181,-0.1207,-0.1302,-0.1327,-0.1331,-0.1292,-0.1213,-0.1097,-0.0911,-0.0737,-0.0502,-0.0204,-0.0038,0.0164,0.0286,0.0282,0.0291,0.0285,0.02,0.0194,0.0348,0.0328,0,0,0,0,0]}],[{"header":{"parameterUnit":"m.s-1","parameterCategory":2,"la1":30.2991,"la2":30.254,"lo1":-89.0895,"lo2":-89.0444,"dy":0.0017,"dx":0.0017,"nx":28,"ny":28,"refTime":"2025-01-17T09:00:00:Z","depth":"4","parameterNumber":2,"parameterNumberName":"U-component_of_CURRENTS"},"data":[0,0,0,0,0,0,0,0,0,0,0,0,0,0,0,0,0,0,0,0,0,0,0,0,0,0,0,0,0,0,0,0,0,0,0,0,0,0,0,0,0,0,0,0,0,0,0,0,0,0,0,0,0,0,0,0,0,0,-0.1143,-0.1144,0,-0.1164,-0.1164,-0.1164,-0.1182,-0.1182,-0.1183,-0.1183,-0.1219,-0.122,-0.122,0,0,0,0,0,0,0,0,0,0,0,0,0,-0.1122,-0.1122,-0.1143,-0.1144,-0.1144,-0.1164,-0.1164,-0.1164,-0.1182,-0.1182,-0.1183,-0.1183,-0.1219,-0.122,-0.1221,0,0,0,0,0,0,0,0,0,0,0,0,0,-0.1134,-0.1122,-0.1143,-0.1157,-0.1158,-0.1164,-0.1164,-0.1164,-0.1182,-0.1182,-0.1183,-0.1183,-0.1219,-0.122,-0.1221,-0.1216,0,0,-0.1224,-0.1224,0,0,0,0,0,0,0,0,-0.1133,-0.1135,-0.1154,-0.1156,-0.1157,-0.1172,-0.117,-0.1183,-0.1182,-0.1171,-0.1183,-0.1184,-0.1206,-0.1208,-0.1208,-0.1217,-0.1219,-0.1224,-0.1224,-0.1225,-0.1225,0,0,0,0,0,0,0,-0.1132,-0.1134,-0.115,-0.1155,-0.1157,-0.1163,-0.1165,-0.1172,-0.1184,-0.1172,-0.1174,-0.1179,-0.1207,-0.1207,-0.1209,-0.1219,-0.1224,-0.1224,-0.1225,-0.1225,-0.1279,-0.128,0,0,0,0,0,0,-0.1133,-0.1133,-0.1149,-0.115,-0.1148,-0.1163,-0.1165,-0.1166,-0.1184,-0.1187,-0.1178,-0.1179,-0.1205,-0.1208,-0.121,-0.126,-0.1225,-0.1225,-0.1226,-0.1278,-0.1279,-0.128,0,0,0,0,0,0,-0.1132,-0.1134,-0.1148,-0.1144,-0.1146,-0.1163,-0.1163,-0.1166,-0.1188,-0.1188,-0.1192,-0.1201,-0.1205,-0.1209,-0.1239,-0.1259,-0.1226,-0.1227,-0.1277,-0.1279,-0.128,-0.1324,0,0,0,0,0,0,-0.1131,-0.1133,-0.1147,-0.1144,-0.1147,-0.1167,-0.1163,-0.1166,-0.119,-0.1192,-0.1209,-0.1211,-0.1206,-0.1237,-0.124,-0.126,-0.1227,-0.1276,-0.1278,-0.1279,-0.1321,-0.1326,-0.1331,0,0,0,0,0,-0.113,-0.1151,-0.1148,-0.1151,-0.1161,-0.1168,-0.1171,-0.1182,-0.1191,-0.1204,-0.1218,-0.1212,-0.1249,-0.1239,-0.1241,-0.1262,-0.1275,-0.1277,-0.1279,-0.1319,-0.1325,-0.1331,0,0,0,0,0,0,-0.1153,-0.1155,-0.1151,-0.1172,-0.1175,-0.1172,-0.1195,-0.1196,-0.1216,-0.1229,-0.1225,-0.1229,-0.1261,-0.1256,-0.1245,-0.1282,-0.126,-0.1263,-0.129,-0.1296,-0.13,-0.1293,-0.1228,0,0,0,0,0,-0.1162,-0.118,-0.1172,-0.1193,-0.1196,-0.1197,-0.1208,-0.1212,-0.1223,-0.1234,-0.1244,-0.1256,-0.1266,-0.1278,-0.1286,-0.1309,-0.1296,-0.1323,-0.1328,-0.1332,-0.1327,-0.1319,-0.1322,-0.1287,-0.1287,-0.1287,0,0,-0.1175,-0.1183,-0.1192,-0.12,-0.1206,-0.1212,-0.1206,-0.1229,-0.1241,-0.1235,-0.127,-0.1277,-0.1277,-0.1302,-0.1315,-0.1304,-0.134,-0.1334,-0.1338,-0.1331,-0.1321,-0.1325,-0.1328,-0.1288,-0.1288,-0.1288,0,0,-0.121,-0.1218,-0.124,-0.1244,-0.1258,-0.125,-0.126,-0.1267,-0.1279,-0.1306,-0.1304,-0.1322,-0.1345,-0.1342,-0.1343,-0.1379,-0.1365,-0.1389,-0.1409,-0.1401,-0.1404,-0.1406,-0.1411,-0.1413,-0.1391,-0.1391,-0.1392,0,-0.1222,-0.1247,-0.1249,-0.1268,-0.1273,-0.1267,-0.128,-0.1289,-0.1307,-0.1314,-0.1327,-0.1349,-0.1358,-0.1367,-0.1386,-0.1389,-0.1388,-0.1388,-0.1407,-0.1409,-0.141,-0.1414,-0.1415,-0.1394,-0.1394,-0.1393,-0.1393,0,-0.1255,-0.1285,-0.1302,-0.1314,-0.132,-0.1335,-0.1332,-0.1347,-0.136,-0.1361,-0.1387,-0.1396,-0.1404,-0.1415,-0.1417,-0.1432,-0.143,-0.1414,-0.1391,-0.1416,-0.1419,-0.142,-0.1397,-0.1396,-0.1396,-0.1395,0,0,-0.1223,-0.1308,-0.1306,-0.1334,-0.1343,-0.1347,-0.1366,-0.1367,-0.1387,-0.1401,-0.1423,-0.1438,-0.1441,-0.1442,-0.1445,-0.1445,-0.1469,-0.1444,-0.1442,-0.1446,-0.1467,-0.1381,-0.1373,-0.1459,-0.1459,-0.1459,-0.1471,0,-0.1235,-0.1294,-0.1321,-0.136,-0.1383,-0.1385,-0.1404,-0.1409,-0.1422,-0.1448,-0.1442,-0.1471,-0.1451,-0.1475,-0.1467,-0.1475,-0.1471,-0.1468,-0.1443,-0.1442,-0.136,-0.1371,-0.1459,-0.1472,-0.1472,-0.1472,-0.1472,0,-0.122,-0.1275,-0.1324,-0.1397,-0.1403,-0.1425,-0.1438,-0.1457,-0.1476,-0.1494,-0.1498,-0.1505,-0.1513,-0.1501,-0.1489,-0.1491,-0.1482,-0.1477,-0.1476,-0.1376,-0.1357,-0.1437,-0.1473,-0.1473,-0.1473,-0.1473,-0.1473,0,-0.1164,-0.1256,-0.1302,-0.1321,-0.1399,-0.1424,-0.1451,-0.1471,-0.1492,-0.1528,-0.1551,-0.1546,-0.1566,-0.1539,-0.1525,-0.1517,-0.1514,-0.1496,-0.1401,-0.1396,-0.1451,-0.1448,-0.1476,-0.1476,-0.1476,-0.1476,-0.1476,0,-0.1129,-0.117,-0.1297,-0.1317,-0.1374,-0.1427,-0.147,-0.1494,-0.1541,-0.1557,-0.1578,-0.1583,-0.1579,-0.1572,-0.1543,-0.1472,-0.1519,-0.1399,-0.1385,-0.1473,-0.1472,-0.1453,-0.145,-0.1476,-0.1476,-0.1476,-0.1476,0,-0.1051,-0.1132,-0.1198,-0.1311,-0.1353,-0.1384,-0.1481,-0.1505,-0.1563,-0.1588,-0.1604,-0.1625,-0.1604,-0.1588,-0.1563,-0.1491,-0.1442,-0.1405,-0.1519,-0.1512,-0.1327,-0.1326,-0.129,-0.1287,-0.1284,-0.1282,-0.128,0,-0.102,-0.1053,-0.1177,-0.121,-0.1271,-0.135,-0.1395,-0.149,-0.1514,-0.1586,-0.1583,-0.1605,-0.1598,-0.1483,-0.1485,-0.1416,-0.1388,-0.1364,-0.1317,-0.1314,-0.1304,-0.1308,-0.1311,-0.1276,-0.1276,-0.1275,-0.1274,0,-0.0962,-0.1006,-0.1055,-0.1133,-0.1197,-0.1267,-0.1349,-0.1367,-0.1457,-0.1539,-0.1505,-0.1477,-0.1456,-0.1407,-0.1374,-0.1321,-0.1378,-0.1336,-0.134,-0.1296,-0.1297,-0.129,-0.1297,-0.1265,-0.1266,-0.1267,-0.1268,0,-0.0905,-0.0918,-0.0978,-0.1033,-0.1107,-0.1147,-0.1216,-0.1256,-0.1302,-0.1395,-0.1383,-0.1396,-0.1442,-0.1359,-0.1325,-0.1271,-0.1232,-0.1175,-0.1187,-0.1197,-0.1157,-0.1144,-0.1046,0,0,0,0,0,-0.0848,-0.0845,-0.0879,-0.0927,-0.0992,-0.1041,-0.1158,-0.1228,-0.1343,-0.128,-0.1326,-0.1293,-0.1234,-0.1246,-0.1162,-0.1276,-0.124,-0.1174,-0.1183,-0.1214,-0.1225,-0.1184,0,0,0,0,0,0,-0.0805,-0.0827,-0.0838,-0.0825,-0.0836,-0.0909,-0.0978,-0.1066,-0.1045,-0.1151,-0.1121,-0.1197,-0.1155,-0.124,-0.1122,-0.1127,-0.1103,-0.1197,-0.1193,-0.1208,-0.1218,-0.1226,-0.1188,0,0,0,0,0]},{"header":{"parameterUnit":"m.s-1","parameterCategory":2,"la1":30.2991,"la2":30.254,"lo1":-89.0895,"lo2":-89.0444,"dy":0.0017,"dx":0.0017,"nx":28,"ny":28,"refTime":"2025-01-17T09:00:00:Z","depth":"4","parameterNumber":3,"parameterNumberName":"V-component_of_CURRENTS"},"data":[0,0,0,0,0,0,0,0,0,0,0,0,0,0,0,0,0,0,0,0,0,0,0,0,0,0,0,0,0,0,0,0,0,0,0,0,0,0,0,0,0,0,0,0,0,0,0,0,0,0,0,0,0,0,0,0,0,0,-0.0366,-0.0366,0,-0.0358,-0.0358,-0.0358,-0.0351,-0.0351,-0.0351,-0.0351,-0.0364,-0.0364,-0.0365,0,0,0,0,0,0,0,0,0,0,0,0,0,-0.0341,-0.0342,-0.0366,-0.0365,-0.0365,-0.0358,-0.0358,-0.0358,-0.0352,-0.0351,-0.0351,-0.0351,-0.0364,-0.0364,-0.0365,0,0,0,0,0,0,0,0,0,0,0,0,0,-0.0345,-0.0342,-0.0366,-0.0361,-0.036,-0.0358,-0.0358,-0.0358,-0.0352,-0.0351,-0.0351,-0.0351,-0.0363,-0.0364,-0.0365,-0.0373,0,0,-0.0367,-0.0367,0,0,0,0,0,0,0,0,-0.0345,-0.0346,-0.0362,-0.0361,-0.036,-0.0355,-0.0354,-0.0364,-0.0352,-0.0356,-0.0351,-0.0351,-0.0362,-0.0363,-0.0363,-0.0373,-0.0374,-0.0367,-0.0367,-0.0367,-0.0368,0,0,0,0,0,0,0,-0.0345,-0.0346,-0.0363,-0.0362,-0.0361,-0.0347,-0.0348,-0.0355,-0.0361,-0.0355,-0.0355,-0.0353,-0.0362,-0.0362,-0.0363,-0.0374,-0.0367,-0.0367,-0.0368,-0.0368,-0.0374,-0.0374,0,0,0,0,0,0,-0.0347,-0.0347,-0.0363,-0.0363,-0.0351,-0.0348,-0.0349,-0.0357,-0.036,-0.036,-0.0353,-0.0352,-0.0361,-0.0362,-0.0363,-0.0376,-0.0367,-0.0368,-0.0369,-0.0375,-0.0374,-0.0374,0,0,0,0,0,0,-0.0346,-0.0349,-0.0364,-0.0353,-0.0354,-0.0349,-0.0358,-0.0357,-0.036,-0.0358,-0.0359,-0.0357,-0.0361,-0.0362,-0.0369,-0.0376,-0.0368,-0.0369,-0.0375,-0.0374,-0.0374,-0.0399,0,0,0,0,0,0,-0.0346,-0.0349,-0.0359,-0.0354,-0.0355,-0.0365,-0.0358,-0.0357,-0.0359,-0.0358,-0.0362,-0.0362,-0.0361,-0.0368,-0.037,-0.0377,-0.037,-0.0375,-0.0375,-0.0374,-0.0399,-0.04,-0.0401,0,0,0,0,0,-0.0345,-0.0355,-0.036,-0.0362,-0.0368,-0.0366,-0.0365,-0.036,-0.0359,-0.0362,-0.0361,-0.0363,-0.0366,-0.0369,-0.0371,-0.0378,-0.0375,-0.0375,-0.0374,-0.0398,-0.04,-0.0401,0,0,0,0,0,0,-0.0348,-0.0356,-0.036,-0.0373,-0.0372,-0.0364,-0.0367,-0.0364,-0.0366,-0.0368,-0.0365,-0.0366,-0.0373,-0.0369,-0.0372,-0.0376,-0.0369,-0.0368,-0.0386,-0.0387,-0.0388,-0.0394,-0.037,0,0,0,0,0,-0.0355,-0.0368,-0.0368,-0.0379,-0.0379,-0.0375,-0.0375,-0.0373,-0.0372,-0.0372,-0.0373,-0.0372,-0.0372,-0.0375,-0.0374,-0.0383,-0.0356,-0.0385,-0.0386,-0.0387,-0.0391,-0.0372,-0.0372,-0.0372,-0.0372,-0.0372,0,0,-0.0361,-0.0365,-0.0374,-0.0381,-0.038,-0.039,-0.0375,-0.0377,-0.0386,-0.0374,-0.0387,-0.0378,-0.0373,-0.0379,-0.0381,-0.0379,-0.0364,-0.0386,-0.0388,-0.0391,-0.0372,-0.0372,-0.0372,-0.0372,-0.0372,-0.0372,0,0,-0.0374,-0.0381,-0.0396,-0.0397,-0.0399,-0.04,-0.0402,-0.0399,-0.0399,-0.0407,-0.0397,-0.0394,-0.0396,-0.0393,-0.0392,-0.0399,-0.037,-0.0393,-0.0408,-0.039,-0.039,-0.039,-0.0319,-0.0313,-0.0395,-0.0395,-0.0395,0,-0.0386,-0.0402,-0.0398,-0.0408,-0.0412,-0.0408,-0.0421,-0.0422,-0.0422,-0.042,-0.0414,-0.0406,-0.0405,-0.0408,-0.0408,-0.0404,-0.0368,-0.0408,-0.0392,-0.0392,-0.0391,-0.0319,-0.0312,-0.0396,-0.0396,-0.0396,-0.0396,0,-0.0406,-0.042,-0.0425,-0.0445,-0.0447,-0.0456,-0.0456,-0.0461,-0.046,-0.0453,-0.0449,-0.044,-0.0432,-0.0429,-0.0424,-0.0419,-0.0382,-0.0396,-0.0392,-0.0393,-0.0316,-0.0308,-0.0398,-0.0397,-0.0397,-0.0397,0,0,-0.0448,-0.0443,-0.0451,-0.0457,-0.0466,-0.0471,-0.0487,-0.0493,-0.0492,-0.049,-0.0479,-0.0484,-0.0464,-0.0461,-0.0447,-0.0434,-0.039,-0.0415,-0.0413,-0.0348,-0.0303,-0.0289,-0.0278,-0.0402,-0.0402,-0.0402,-0.0237,0,-0.0475,-0.0493,-0.0487,-0.0511,-0.052,-0.0516,-0.0525,-0.0526,-0.0516,-0.0501,-0.0489,-0.0472,-0.048,-0.0462,-0.0457,-0.0403,-0.0376,-0.0431,-0.0309,-0.0304,-0.0297,-0.0272,-0.0401,-0.0231,-0.0229,-0.0227,-0.0226,0,-0.0517,-0.0516,-0.0539,-0.0534,-0.0538,-0.0554,-0.0558,-0.056,-0.0539,-0.0521,-0.0507,-0.0479,-0.0453,-0.0459,-0.0384,-0.0414,-0.0364,-0.0326,-0.0319,-0.0297,-0.0277,-0.0238,-0.0211,-0.0212,-0.0214,-0.0215,-0.0216,0,-0.056,-0.0564,-0.0581,-0.0582,-0.0574,-0.0586,-0.0587,-0.0573,-0.0566,-0.0526,-0.0502,-0.0467,-0.0432,-0.0389,-0.0316,-0.0341,-0.0213,-0.0237,-0.0171,-0.0166,-0.0218,-0.022,-0.0189,-0.0189,-0.0189,-0.019,-0.019,0,-0.0604,-0.0621,-0.0601,-0.0612,-0.0628,-0.0608,-0.062,-0.0609,-0.0577,-0.056,-0.0514,-0.0484,-0.0418,-0.0341,-0.0289,-0.0189,-0.0189,-0.016,-0.0133,-0.0225,-0.023,-0.0209,-0.0213,-0.0184,-0.0185,-0.0186,-0.0187,0,-0.066,-0.0649,-0.0667,-0.0654,-0.0655,-0.0669,-0.0658,-0.0653,-0.0609,-0.0582,-0.0565,-0.0478,-0.0371,-0.0283,-0.0173,-0.0143,-0.0055,-0.0023,-0.0075,-0.0055,-0.0017,-0.0024,0.0077,0.0079,0.0081,0.0082,0.0083,0,-0.0682,-0.0697,-0.0707,-0.0725,-0.0727,-0.0733,-0.0738,-0.0691,-0.0675,-0.0586,-0.057,-0.0448,-0.0388,-0.019,-0.0117,0.003,0.0017,0.0086,-0.0023,-0.001,0.0006,-0.0004,-0.0013,0.0085,0.0085,0.0086,0.0086,0,-0.0715,-0.0733,-0.0748,-0.079,-0.0807,-0.0808,-0.0801,-0.078,-0.0711,-0.0668,-0.0556,-0.0446,-0.031,-0.0183,-0.0051,0.0027,0.005,0.01,0.0096,-0.0006,-0.0,0.0012,0.0002,0.0091,0.009,0.009,0.0089,0,-0.0741,-0.0769,-0.0805,-0.0837,-0.0878,-0.0877,-0.0855,-0.08,-0.0757,-0.0636,-0.06,-0.0446,-0.0347,-0.0181,-0.0076,0.0027,0.0021,0.0023,0.0023,0.0019,-0.0073,-0.0079,0.0021,0,0,0,0,0,-0.0745,-0.0783,-0.0838,-0.0879,-0.0935,-0.0938,-0.09,-0.0857,-0.0772,-0.0697,-0.064,-0.0511,-0.0317,-0.0228,-0.0124,-0.0087,0.0018,0.0035,0.0013,0.0118,0.0112,0.0011,0,0,0,0,0,0,-0.0749,-0.0809,-0.0839,-0.0917,-0.0955,-0.0986,-0.0952,-0.0885,-0.0821,-0.0725,-0.0616,-0.052,-0.0332,-0.0392,-0.0139,-0.0104,-0.0109,0.0139,0.014,0.0121,0.0116,0.0111,0.0005,0,0,0,0,0]}]]